Weather History for Forrest, WE

Change the Weather History Date:

Friday, January 24, 2014

  Actual Average Record
Temperature  
Mean Temperature 70 °F -  
Max Temperature 75 °F - - ()
Min Temperature 64 °F - - ()
Cooling Degree Days 4    
Growing Degree Days 20 (Base 50)    
Moisture  
Dew Point 66 °F    
Average Humidity 92    
Maximum Humidity 100    
Minimum Humidity 71    
Precipitation  
Precipitation 0.00 in - - ()
Sea Level Pressure  
Sea Level Pressure 29.93 in    
Wind  
Wind Speed 20 mph ()    
Max Wind Speed 29 mph    
Max Gust Speed 39 mph    
T = Trace of Precipitation, MM = Missing Value Source: Averaged Metar Reports

Daily Weather History Graph

Daily Weather History Graph

Search for Another Location

Airport:

Trip Planner

Search our weather history database for the weather conditions in past years. The results will help you decide how hot, cold, wet, or windy it might be!

Date:

Astronomy

Jan. 24, 2014 Rise Set
Actual Time 4:46 AM AWST 6:31 PM AWST
Civil Twilight 4:20 AM AWST 6:58 PM AWST
Nautical Twilight 3:48 AM AWST 7:30 PM AWST
Astronomical Twilight 3:14 AM AWST 8:03 PM AWST
Moon 11:07 PM AWST (1/24) 11:48 AM AWST (1/24)
Length of Visible Light 14h 37m
Length of Day
13h 44m
Waning Gibbous, 50% of the Moon is Illuminated
Jan 24
Waning Gibbous
Jan 24
Last Quarter
Jan 31
New
Feb 7
First Quarter
Feb 15
Full

Hourly Weather History & Observations

Time (AWST) Temp. Dew Point Humidity Pressure Visibility Wind Dir Wind Speed Gust Speed Precip Events Conditions
12:00 AM 65 °F - % 29.76 in - ESE 26.5 mph - -  
12:00 AM - - N/A% 29.77 in - ESE 26.5 mph - N/A   Unknown
12:22 AM - - N/A% 29.77 in - ESE 27.6 mph 39.1 mph N/A   Unknown
12:30 AM - - N/A% 29.77 in - ESE 28.8 mph - N/A   Unknown
12:43 AM 64.4 °F 64.4 °F 100% 29.77 in - SE 26.5 mph 38.0 mph N/A   Unknown
1:00 AM 64.4 °F 64.4 °F 100% 29.80 in - SE 24.2 mph - N/A   Unknown
1:30 AM 64.4 °F 64.4 °F 100% 29.80 in - SE 24.2 mph - N/A   Unknown
2:00 AM 65 °F 65 °F 100% 29.79 in - SE 25.3 mph - -  
2:02 AM 64.4 °F 64.4 °F 100% 29.80 in - SE 24.2 mph 35.7 mph N/A   Unknown
2:30 AM 64.4 °F 64.4 °F 100% 29.83 in - SE 23.0 mph - N/A   Unknown
3:00 AM 64 °F - % 29.82 in - SE 21.9 mph - -  
3:00 AM 64.4 °F 64.4 °F 100% 29.83 in - SE 21.9 mph - N/A   Unknown
3:30 AM 64.4 °F 64.4 °F 100% 29.83 in - SE 23.0 mph - N/A   Unknown
4:00 AM 64.4 °F 64.4 °F 100% 29.86 in - ESE 21.9 mph - N/A   Unknown
4:30 AM 64.4 °F 64.4 °F 100% 29.86 in - SE 20.7 mph - N/A   Unknown
5:00 AM 64 °F 65 °F 100% 29.86 in - SE 18.4 mph - -  
5:00 AM 64.4 °F 64.4 °F 100% 29.86 in - SE 18.4 mph - N/A   Unknown
5:30 AM 64.4 °F 64.4 °F 100% 29.92 in - SE 18.4 mph - N/A   Unknown
6:00 AM 64 °F - % 29.92 in - SE 18.4 mph - -  
6:00 AM 64.4 °F 64.4 °F 100% 29.92 in - SE 18.4 mph - N/A   Unknown
6:30 AM 64.4 °F 64.4 °F 100% 29.95 in - ESE 19.6 mph - N/A   Unknown
7:00 AM - - N/A% 29.95 in - ESE 18.4 mph - N/A   Unknown
7:30 AM 66.2 °F 66.2 °F 100% 29.92 in - ESE 20.7 mph - N/A   Unknown
8:00 AM 66 °F 67 °F 100% 29.94 in - SE 18.4 mph - -  
8:00 AM 66.2 °F 66.2 °F 100% 29.95 in - SE 18.4 mph - N/A   Unknown
8:30 AM 66.2 °F 66.2 °F 100% 29.95 in - ESE 19.6 mph - N/A   Unknown
9:00 AM 69 °F 69 °F 99% 29.94 in - ESE 21.9 mph - -  
9:00 AM 68.0 °F 68.0 °F 100% 29.95 in - ESE 21.9 mph - N/A   Unknown
9:30 AM 69.8 °F 69.8 °F 100% 29.95 in - ESE 21.9 mph - N/A   Unknown
10:00 AM 71.6 °F 68.0 °F 88% 29.95 in - ESE 21.9 mph - N/A   Unknown
10:30 AM 71.6 °F 66.2 °F 83% 29.95 in - ESE 21.9 mph - N/A   Unknown
11:00 AM 72 °F 65 °F 71% 29.95 in - ESE 19.6 mph - -  
11:00 AM 73.4 °F 64.4 °F 73% 29.95 in - ESE 19.6 mph - N/A   Unknown
11:30 AM 73.4 °F 64.4 °F 73% 29.95 in - ESE 16.1 mph - N/A   Unknown
12:00 PM 73 °F 66 °F 72% 29.94 in - ESE 15.0 mph - -  
12:00 PM 73.4 °F 66.2 °F 78% 29.95 in - ESE 15.0 mph - N/A   Unknown
12:30 PM 75.2 °F 66.2 °F 73% 29.95 in - ESE 16.1 mph - N/A   Unknown
1:00 PM 73.4 °F 66.2 °F 78% 29.95 in - ESE 15.0 mph - N/A   Unknown
1:30 PM 75.2 °F 66.2 °F 73% 29.95 in - SE 16.1 mph - N/A   Unknown
2:00 PM 75 °F 67 °F 71% 29.93 in - SE 19.6 mph - -  
2:00 PM 75.2 °F 68.0 °F 78% 29.95 in - SE 19.6 mph - N/A   Unknown
2:30 PM 75.2 °F 66.2 °F 73% 29.95 in - SE 20.7 mph - N/A   Unknown
3:00 PM 74 °F 67 °F 71% 29.93 in - SE 18.4 mph - -  
3:00 PM 73.4 °F 66.2 °F 78% 29.95 in - SE 18.4 mph - N/A   Unknown
3:30 PM 75.2 °F 69.8 °F 83% 29.95 in - SE 19.6 mph - N/A   Unknown
4:00 PM 75.2 °F 68.0 °F 78% 29.95 in - SE 19.6 mph - N/A   Unknown
4:30 PM 73.4 °F 66.2 °F 78% 29.95 in - SE 19.6 mph - N/A   Unknown
5:00 PM 72 °F 67 °F 81% 29.94 in - SE 20.7 mph - -  
5:00 PM 71.6 °F 68.0 °F 88% 29.95 in - SE 20.7 mph - N/A   Unknown
5:30 PM 71.6 °F 69.8 °F 94% 29.95 in - SE 18.4 mph - N/A   Unknown
6:00 PM 70 °F 70 °F 98% 29.96 in - SE 18.4 mph - -  
6:00 PM 69.8 °F 69.8 °F 100% 29.98 in - SE 18.4 mph - N/A   Unknown
6:30 PM 69.8 °F 69.8 °F 100% 30.01 in - SE 20.7 mph - N/A   Unknown
7:00 PM 68.0 °F 68.0 °F 100% 30.01 in - SE 18.4 mph - N/A   Unknown
7:30 PM 68.0 °F 68.0 °F 100% 30.01 in - SE 16.1 mph - N/A   Unknown
8:00 PM 67 °F 67 °F 100% 30.02 in - ESE 15.0 mph - -  
8:00 PM 68.0 °F 68.0 °F 100% 30.04 in - ESE 15.0 mph - N/A   Unknown
8:30 PM 66.2 °F 66.2 °F 100% 30.04 in - ESE 17.3 mph - N/A   Unknown
9:00 PM 67 °F 66 °F 96% 30.05 in - ESE 18.4 mph - -  
9:00 PM 66.2 °F 66.2 °F 100% 30.06 in - ESE 18.4 mph - N/A   Unknown
9:30 PM 66.2 °F 66.2 °F 100% 30.06 in - ESE 17.3 mph - N/A   Unknown
10:00 PM 66.2 °F 66.2 °F 100% 30.06 in - ESE 12.7 mph - N/A   Unknown
10:30 PM 66.2 °F 66.2 °F 100% 30.06 in - ESE 12.7 mph - N/A   Unknown
11:00 PM - - % 30.04 in - ESE 13.8 mph - -  
11:00 PM - - N/A% 30.06 in - ESE 13.8 mph - N/A   Unknown
11:30 PM 64.4 °F 64.4 °F 100% 30.04 in - ESE 21.9 mph - N/A   Unknown